TimeEDT,TemperatureF,Dew PointF,Humidity,Sea Level PressureIn,VisibilityMPH,Wind Direction,Wind SpeedMPH,Gust SpeedMPH,PrecipitationIn,Events,Conditions,WindDirDegrees,DateUTC
12:00 AM,37.6,36.5,96,-9999,-9999.0,Calm,Calm,-,N/A,,Unknown,0,2012-10-09 04:00:00
1:00 AM,36.5,35.2,95,-9999,-9999.0,Calm,Calm,-,N/A,,Unknown,0,2012-10-09 05:00:00
2:00 AM,35,34,94,,,Calm,Calm,,,,,,2012-10-09 06:00:00
2:00 AM,34.7,34.0,97,-9999,-9999.0,Calm,Calm,-,N/A,,Unknown,0,2012-10-09 06:00:00
3:00 AM,34.7,34.2,98,-9999,-9999.0,Calm,Calm,-,N/A,,Unknown,0,2012-10-09 07:00:00
4:00 AM,34.9,34.5,99,-9999,-9999.0,NNW,1.2,-,N/A,,Unknown,340,2012-10-09 08:00:00
5:00 AM,38.3,38.1,99,-9999,-9999.0,NNW,1.2,-,N/A,,Unknown,340,2012-10-09 09:00:00
6:00 AM,39.4,38.8,98,-9999,-9999.0,North,1.2,-,N/A,,Unknown,350,2012-10-09 10:00:00
7:00 AM,41.7,41.2,98,-9999,-9999.0,North,1.2,-,N/A,,Unknown,10,2012-10-09 11:00:00
8:00 AM,45,42,86,,,West,2.3,,,,,270,2012-10-09 12:00:00
8:00 AM,45.3,42.3,89,-9999,-9999.0,West,2.3,-,N/A,,Unknown,270,2012-10-09 12:00:00
9:00 AM,51.1,42.6,73,-9999,-9999.0,SW,2.3,-,N/A,,Unknown,230,2012-10-09 13:00:00
10:00 AM,53.6,42.3,65,-9999,-9999.0,SSW,4.6,-,N/A,,Unknown,200,2012-10-09 14:00:00
11:00 AM,56.1,41.4,58,-9999,-9999.0,SSW,4.6,-,N/A,,Unknown,210,2012-10-09 15:00:00
12:00 PM,56.8,40.3,54,-9999,-9999.0,SW,4.6,-,N/A,,Unknown,220,2012-10-09 16:00:00
1:00 PM,59.2,40.8,51,-9999,-9999.0,SSW,6.9,-,N/A,,Unknown,200,2012-10-09 17:00:00
2:00 PM,57,38,37,,,SSW,5.8,,,,,200,2012-10-09 18:00:00
2:00 PM,57.4,38.1,49,-9999,-9999.0,SSW,5.8,-,N/A,,Unknown,200,2012-10-09 18:00:00
3:00 PM,58.8,38.8,47,-9999,-9999.0,SSW,5.8,-,N/A,,Unknown,200,2012-10-09 19:00:00
4:00 PM,58.1,38.5,48,-9999,-9999.0,SSW,4.6,-,N/A,,Unknown,200,2012-10-09 20:00:00
5:00 PM,56.1,37.6,50,-9999,-9999.0,South,4.6,-,N/A,,Unknown,190,2012-10-09 21:00:00
6:00 PM,53.6,39.0,58,-9999,-9999.0,South,3.5,-,N/A,,Unknown,190,2012-10-09 22:00:00
7:00 PM,50.7,37.6,61,-9999,-9999.0,WSW,1.2,-,N/A,,Unknown,250,2012-10-09 23:00:00
8:00 PM,44,38,73,,,Calm,Calm,,,,,,2012-10-10 00:00:00
8:00 PM,44.2,38.3,80,-9999,-9999.0,Calm,Calm,-,N/A,,Unknown,0,2012-10-10 00:00:00
9:00 PM,41.7,38.3,88,-9999,-9999.0,Calm,Calm,-,N/A,,Unknown,0,2012-10-10 01:00:00
10:00 PM,41.4,39.0,91,-9999,-9999.0,Calm,Calm,-,N/A,,Unknown,0,2012-10-10 02:00:00
11:00 PM,40.1,38.3,93,-9999,-9999.0,North,1.2,-,N/A,,Unknown,350,2012-10-10 03:00:00